Regional Weather Roundup
Issued by NWS

Home | Current Version | Previous Version | Graphics & Text | Print | Product List | Glossary On
Versions: 1 2 3 4 5 6 7 8 9 10 11 12 13 14 15 16 17 18 19 20 21 22 23 24 25 26 27 28 29 30 31 32 33 34 35 36 37 38 39 40 41 42 43 44 45 46 47 48 49 50
000
ASUS45 KCYS 221410
RWRWY

WYOMING REGIONAL WEATHER ROUNDUP
NATIONAL WEATHER SERVICE CHEYENNE WY
700 AM MST WED FEB 22 2017

NOTE:  "FAIR" INDICATES FEW OR NO CLOUDS BELOW 12,000 FEET
WITH NO SIGNIFICANT WEATHER AND/OR OBSTRUCTIONS TO VISIBILITY.

WYZ001-221500-
YELLOWSTONE NATIONAL PARK

CITY           SKY/WX    TMP DP  RH WIND       PRES   REMARKS
LK YELLOWSTONE   N/A     16  15  96 W6        29.88S WCI   7
W YELLOWSTONE  NOT AVBL

$$
WYZ002>013-054>058-071-098>099-221500-
NORTHERN WYOMING

CITY           SKY/WX    TMP DP  RH WIND       PRES   REMARKS
JACKSON        MOCLDY    27  19  74 S13       29.93R WCI  16
CODY           FAIR      35  16  45 W10G21    29.84R WCI  27
GREYBULL       FAIR      31  24  75 E9        29.84R WCI  23
WORLAND        FAIR      28  25  88 SE6       29.84R WCI  22
SHERIDAN       FAIR      33  21  61 W7        29.81R WCI  27
BUFFALO        FAIR      38  13  35 NW12      29.79S WCI  30
GILLETTE       FAIR      33  24  69 W9        29.80R WCI  25
HULETT         FAIR      41  23  48 W8        29.78R
NEWCASTLE      FAIR      37  25  60 NW6       29.79S WCI  33

$$
WYZ014>020-022>026-101>103-221500-
CENTRAL WYOMING

CITY           SKY/WX    TMP DP  RH WIND       PRES   REMARKS
BIG PINEY      FAIR      18  13  80 E7        29.94S WCI   9
PINEDALE       FAIR      21  19  93 CALM      29.95S
DUBOIS         FAIR      19  12  73 NW12      29.87S WCI   7
LANDER         FAIR      35  15  44 W14       29.86F WCI  26
RIVERTON       FAIR      30  22  72 W13       29.88S WCI  20
CASPER         FAIR      34  22  61 SW9       29.87R WCI  27
DOUGLAS        CLOUDY    36  25  64 N7        29.88R WCI  30

$$
WYZ021-027>030-104>119-221500-
SOUTHERN WYOMING

CITY           SKY/WX    TMP DP  RH WIND       PRES   REMARKS
EVANSTON       LGT SNOW  24  20  84 CALM      29.95F FOG
FORT BRIDGER   LGT SNOW  25  25 100 W6        30.00S WCI  18
ROCK SPRINGS   CLOUDY    26  22  84 SW9       29.96F WCI  17
DIXON          LGT SNOW  29  27  94 NW3       30.01S
RAWLINS        LGT SNOW  27  23  85 SW9       29.94S FOG     WCI  18
SARATOGA       LGT SNOW  27  27 100 NW7G16    29.97S WCI  19
LARAMIE        FLURRIES  27  24  89 NW3       29.92F
CHEYENNE       FAIR      32  23  69 NW13G21   29.91R WCI  22
TORRINGTON     CLOUDY    42  23  46 W16G23    29.86S
PINE BLUFFS    FAIR      34  23  64 NW21G32   29.89S WCI  22

$$



USA.gov is the U.S. government's official web portal to all federal, state and local government web resources and services.